QPF
0.05 0.06 0.05 0.05 0.03 0.04 0.04 0.06 0.06 0.05 0.04 0.04 0.04 0.04 0.03 0.03 0.04 0.05 0.05 0.06 0.06 0.05 0.04 0.07 0.11 0.09 0.09 0.07 0.05 0.04 0.04 0.04 0.05 0.05 0.04 0.04 0.03 0.02 0.02 0.02 0.02 0.02 0.02
0.07 0.06 0.04 0.05 0.06 0.05 0.04 0.05 0.06 0.07 0.06 0.05 0.04 0.04 0.02 0.02 0.04 0.03 0.04 0.05 0.05 0.04 0.03 0.06 0.07 0.07 0.06 0.06 0.05 0.04 0.04 0.05 0.04 0.05 0.05 0.04 0.05 0.04 0.03 0.02 0.02 0.02 0.02
0.07 0.07 0.06 0.06 0.07 0.06 0.06 0.05 0.05 0.06 0.06 0.05 0.06 0.05 0.04 0.03 0.03 0.03 0.04 0.06 0.05 0.04 0.03 0.06 0.07 0.06 0.04 0.05 0.05 0.04 0.04 0.04 0.04 0.03 0.05 0.05 0.05 0.07 0.06 0.04 0.02 0.02 0.01
0.05 0.06 0.06 0.05 0.06 0.05 0.06 0.07 0.06 0.07 0.10 0.07 0.09 0.07 0.06 0.06 0.06 0.06 0.06 0.06 0.04 0.03 0.02 0.03 0.06 0.06 0.05 0.04 0.05 0.04 0.03 0.03 0.04 0.04 0.04 0.05 0.05 0.06 0.06 0.06 0.04 0.02 0.02
0.06 0.06 0.07 0.07 0.07 0.07 0.07 0.07 0.09 0.12 0.14 0.11 0.11 0.11 0.09 0.07 0.06 0.06 0.06 0.05 0.04 0.03 0.02 0.02 0.05 0.08 0.05 0.04 0.05 0.05 0.04 0.04 0.04 0.04 0.04 0.05 0.06 0.06 0.05 0.05 0.04 0.03 0.03
0.07 0.07 0.08 0.07 0.07 0.07 0.06 0.07 0.11 0.13 0.11 0.10 0.11 0.11 0.11 0.08 0.07 0.06 0.05 0.07 0.05 0.02 0.02 0.03 0.04 0.06 0.08 0.06 0.05 0.05 0.04 0.04 0.04 0.04 0.04 0.04 0.04 0.06 0.06 0.05 0.04 0.04 0.04
0.08 0.09 0.07 0.08 0.07 0.07 0.06 0.07 0.08 0.10 0.11 0.12 0.12 0.11 0.08 0.06 0.05 0.05 0.06 0.07 0.06 0.05 0.05 0.04 0.04 0.05 0.05 0.07 0.07 0.06 0.05 0.03 0.03 0.03 0.03 0.03 0.03 0.03 0.03 0.04 0.04 0.03 0.03
0.06 0.06 0.09 0.07 0.06 0.08 0.09 0.08 0.08 0.09 0.10 0.12 0.11 0.11 0.10 0.09 0.06 0.05 0.06 0.05 0.07 0.08 0.07 0.05 0.03 0.04 0.05 0.05 0.04 0.05 0.06 0.04 0.04 0.03 0.03 0.04 0.03 0.03 0.03 0.03 0.03 0.03 0.03
0.05 0.07 0.08 0.06 0.05 0.06 0.07 0.06 0.07 0.08 0.09 0.10 0.10 0.10 0.10 0.10 0.09 0.08 0.06 0.06 0.06 0.06 0.06 0.05 0.03 0.03 0.04 0.06 0.06 0.04 0.03 0.04 0.05 0.04 0.04 0.03 0.02 0.03 0.03 0.03 0.04 0.03 0.03
0.03 0.04 0.04 0.05 0.04 0.04 0.05 0.04 0.06 0.07 0.08 0.07 0.10 0.10 0.10 0.12 0.11 0.11 0.09 0.07 0.08 0.07 0.05 0.05 0.05 0.04 0.03 0.05 0.06 0.06 0.05 0.04 0.04 0.06 0.06 0.04 0.02 0.02 0.04 0.05 0.06 0.05 0.03
0.03 0.03 0.04 0.04 0.04 0.04 0.04 0.04 0.06 0.06 0.06 0.07 0.08 0.09 0.11 0.13 0.11 0.11 0.10 0.09 0.09 0.07 0.06 0.06 0.06 0.05 0.06 0.06 0.07 0.07 0.07 0.04 0.03 0.04 0.07 0.08 0.05 0.03 0.03 0.09 0.09 0.06 0.04
0.04 0.03 0.04 0.05 0.04 0.04 0.05 0.05 0.06 0.06 0.07 0.08 0.07 0.06 0.08 0.09 0.09 0.09 0.10 0.10 0.10 0.07 0.05 0.05 0.06 0.07 0.06 0.06 0.05 0.05 0.06 0.05 0.03 0.02 0.04 0.06 0.09 0.07 0.05 0.10 0.09 0.06 0.04
0.05 0.05 0.05 0.05 0.04 0.04 0.05 0.05 0.06 0.06 0.05 0.06 0.06 0.06 0.05 0.05 0.05 0.07 0.10 0.11 0.11 0.09 0.08 0.06 0.07 0.07 0.06 0.06 0.06 0.06 0.06 0.05 0.04 0.02 0.03 0.03 0.04 0.07 0.08 0.07 0.06 0.05 0.04
0.05 0.05 0.04 0.04 0.05 0.05 0.05 0.06 0.05 0.06 0.06 0.05 0.05 0.06 0.06 0.05 0.05 0.06 0.07 0.10 0.11 0.09 0.09 0.07 0.06 0.05 0.05 0.05 0.05 0.06 0.05 0.05 0.04 0.02 0.02 0.02 0.02 0.03 0.05 0.07 0.06 0.04 0.03
0.07 0.06 0.05 0.05 0.05 0.06 0.06 0.07 0.08 0.07 0.08 0.07 0.06 0.06 0.06 0.05 0.05 0.05 0.07 0.10 0.11 0.10 0.09 0.06 0.05 0.04 0.04 0.04 0.07 0.07 0.06 0.06 0.05 0.03 0.03 0.02 0.02 0.02 0.03 0.04 0.05 0.04 0.04
0.07 0.06 0.06 0.07 0.09 0.08 0.08 0.08 0.08 0.08 0.07 0.07 0.07 0.06 0.06 0.05 0.05 0.06 0.06 0.08 0.09 0.09 0.08 0.05 0.05 0.04 0.04 0.03 0.06 0.06 0.07 0.09 0.07 0.04 0.03 0.03 0.03 0.03 0.03 0.04 0.04 0.04 0.04
0.08 0.07 0.06 0.06 0.07 0.07 0.07 0.08 0.08 0.08 0.07 0.07 0.07 0.06 0.06 0.06 0.06 0.06 0.06 0.07 0.08 0.08 0.07 0.05 0.06 0.06 0.07 0.06 0.07 0.07 0.07 0.10 0.09 0.08 0.06 0.04 0.05 0.06 0.05 0.05 0.05 0.05 0.05
0.10 0.08 0.06 0.06 0.07 0.06 0.06 0.07 0.07 0.08 0.09 0.09 0.08 0.09 0.08 0.08 0.08 0.06 0.06 0.06 0.07 0.08 0.08 0.06 0.06 0.05 0.07 0.08 0.09 0.08 0.06 0.07 0.07 0.09 0.07 0.05 0.04 0.04 0.06 0.06 0.06 0.07 0.07
0.08 0.09 0.08 0.07 0.07 0.08 0.08 0.08 0.06 0.06 0.07 0.08 0.08 0.08 0.07 0.09 0.08 0.06 0.06 0.06 0.06 0.07 0.08 0.07 0.05 0.05 0.04 0.06 0.10 0.11 0.11 0.10 0.07 0.09 0.08 0.06 0.05 0.04 0.04 0.05 0.06 0.06 0.07
0.06 0.06 0.06 0.06 0.07 0.07 0.07 0.09 0.09 0.08 0.08 0.07 0.07 0.06 0.06 0.06 0.06 0.06 0.05 0.06 0.07 0.07 0.08 0.08 0.08 0.06 0.05 0.06 0.08 0.10 0.13 0.13 0.09 0.07 0.07 0.06 0.06 0.06 0.05 0.04 0.04 0.05 0.05
0.05 0.05 0.05 0.05 0.06 0.06 0.07 0.07 0.07 0.07 0.07 0.07 0.06 0.05 0.05 0.06 0.06 0.05 0.04 0.05 0.09 0.09 0.08 0.08 0.08 0.07 0.06 0.07 0.07 0.07 0.08 0.11 0.11 0.09 0.08 0.06 0.05 0.05 0.05 0.05 0.05 0.04 0.03
0.05 0.04 0.04 0.04 0.05 0.04 0.04 0.04 0.05 0.05 0.05 0.06 0.06 0.06 0.05 0.05 0.04 0.03 0.03 0.03 0.05 0.07 0.07 0.07 0.07 0.06 0.06 0.06 0.05 0.05 0.06 0.07 0.07 0.08 0.09 0.08 0.06 0.05 0.05 0.05 0.06 0.05 0.04
0.04 0.03 0.03 0.03 0.02 0.02 0.02 0.02 0.03 0.04 0.05 0.06 0.07 0.07 0.05 0.05 0.05 0.04 0.03 0.03 0.03 0.03 0.05 0.06 0.07 0.05 0.04 0.04 0.05 0.05 0.06 0.07 0.06 0.06 0.08 0.08 0.08 0.07 0.06 0.05 0.05 0.05 0.04
0.03 0.03 0.03 0.02 0.02 0.02 0.01 0.01 0.01 0.02 0.04 0.05 0.05 0.05 0.05 0.06 0.04 0.04 0.04 0.04 0.03 0.03 0.03 0.03 0.03 0.04 0.03 0.04 0.04 0.04 0.05 0.05 0.06 0.05 0.07 0.07 0.07 0.07 0.07 0.06 0.05 0.05 0.04
0.03 0.03 0.02 0.03 0.03 0.03 0.02 0.01 0.01 0.02 0.03 0.04 0.05 0.04 0.04 0.04 0.03 0.02 0.02 0.03 0.03 0.04 0.03 0.02 0.02 0.02 0.02 0.02 0.03 0.03 0.04 0.04 0.04 0.04 0.05 0.05 0.05 0.06 0.06 0.06 0.04 0.04 0.04
0.03 0.03 0.03 0.03 0.04 0.04 0.03 0.02 0.02 0.02 0.03 0.04 0.05 0.04 0.03 0.02 0.01 0.01 0.01 0.03 0.03 0.03 0.03 0.03 0.02 0.01 0.01 0.01 0.01 0.01 0.03 0.04 0.04 0.04 0.04 0.05 0.04 0.06 0.05 0.04 0.04 0.04 0.03
MSLP
1015.24 1015.43 1015.56 1015.64 1015.71 1015.77 1015.83 1015.89 1015.95 1015.98 1015.99 1015.96 1015.91 1015.86 1015.83 1015.86 1015.95 1016.12 1016.34 1016.61 1016.89 1017.16 1017.39 1017.58 1017.73 1017.85 1017.96 1018.09 1018.23 1018.40 1018.57 1018.74 1018.90 1019.04 1019.16 1019.27 1019.36 1019.45 1019.53 1019.61 1019.69 1019.75 1019.79
1015.27 1015.44 1015.54 1015.60 1015.63 1015.65 1015.69 1015.75 1015.81 1015.86 1015.88 1015.88 1015.85 1015.81 1015.77 1015.76 1015.80 1015.91 1016.08 1016.30 1016.56 1016.82 1017.07 1017.30 1017.50 1017.67 1017.83 1017.98 1018.12 1018.28 1018.43 1018.59 1018.74 1018.89 1019.04 1019.19 1019.33 1019.49 1019.63 1019.77 1019.88 1019.97 1020.04
1015.28 1015.44 1015.53 1015.56 1015.58 1015.59 1015.62 1015.67 1015.73 1015.79 1015.83 1015.85 1015.82 1015.77 1015.71 1015.65 1015.64 1015.68 1015.78 1015.95 1016.16 1016.41 1016.68 1016.94 1017.19 1017.41 1017.61 1017.79 1017.96 1018.11 1018.26 1018.40 1018.55 1018.72 1018.89 1019.09 1019.29 1019.51 1019.72 1019.92 1020.09 1020.22 1020.31
1015.25 1015.41 1015.50 1015.54 1015.56 1015.58 1015.62 1015.68 1015.75 1015.82 1015.88 1015.90 1015.87 1015.80 1015.71 1015.61 1015.53 1015.49 1015.52 1015.62 1015.79 1016.01 1016.27 1016.55 1016.83 1017.09 1017.33 1017.55 1017.74 1017.90 1018.06 1018.21 1018.38 1018.56 1018.76 1019.00 1019.25 1019.53 1019.80 1020.06 1020.28 1020.46 1020.59
1015.17 1015.34 1015.45 1015.53 1015.58 1015.64 1015.70 1015.78 1015.87 1015.96 1016.02 1016.04 1016.01 1015.93 1015.81 1015.67 1015.53 1015.43 1015.38 1015.41 1015.51 1015.68 1015.91 1016.18 1016.47 1016.75 1017.02 1017.27 1017.49 1017.69 1017.87 1018.04 1018.23 1018.44 1018.68 1018.94 1019.24 1019.56 1019.87 1020.18 1020.45 1020.67 1020.84
1015.04 1015.23 1015.38 1015.51 1015.63 1015.73 1015.84 1015.95 1016.06 1016.16 1016.23 1016.26 1016.23 1016.14 1016.01 1015.85 1015.67 1015.52 1015.40 1015.36 1015.39 1015.49 1015.67 1015.90 1016.16 1016.45 1016.73 1017.00 1017.25 1017.48 1017.70 1017.92 1018.14 1018.38 1018.65 1018.94 1019.26 1019.60 1019.94 1020.27 1020.56 1020.81 1021.01
1014.87 1015.09 1015.30 1015.50 1015.68 1015.84 1016.00 1016.14 1016.27 1016.38 1016.46 1016.49 1016.47 1016.40 1016.27 1016.11 1015.92 1015.74 1015.59 1015.48 1015.44 1015.46 1015.56 1015.73 1015.95 1016.20 1016.47 1016.75 1017.03 1017.31 1017.57 1017.84 1018.10 1018.38 1018.68 1018.99 1019.32 1019.65 1019.99 1020.31 1020.61 1020.87 1021.09
1014.70 1014.96 1015.22 1015.48 1015.71 1015.93 1016.12 1016.29 1016.43 1016.54 1016.62 1016.67 1016.67 1016.62 1016.53 1016.39 1016.23 1016.05 1015.88 1015.73 1015.63 1015.58 1015.60 1015.68 1015.83 1016.03 1016.27 1016.55 1016.84 1017.15 1017.47 1017.78 1018.10 1018.42 1018.74 1019.06 1019.38 1019.70 1020.01 1020.31 1020.59 1020.84 1021.06
1014.58 1014.86 1015.16 1015.45 1015.73 1015.97 1016.17 1016.34 1016.47 1016.58 1016.66 1016.72 1016.74 1016.74 1016.70 1016.62 1016.50 1016.36 1016.20 1016.04 1015.89 1015.78 1015.72 1015.71 1015.78 1015.91 1016.10 1016.36 1016.66 1016.99 1017.35 1017.71 1018.08 1018.44 1018.78 1019.11 1019.42 1019.71 1019.98 1020.25 1020.49 1020.72 1020.93
1014.52 1014.81 1015.12 1015.42 1015.70 1015.94 1016.13 1016.27 1016.38 1016.47 1016.54 1016.60 1016.66 1016.70 1016.72 1016.71 1016.66 1016.58 1016.45 1016.30 1016.14 1015.98 1015.85 1015.77 1015.75 1015.81 1015.94 1016.16 1016.44 1016.79 1017.17 1017.58 1017.98 1018.38 1018.75 1019.09 1019.39 1019.66 1019.91 1020.13 1020.35 1020.56 1020.76
1014.52 1014.80 1015.10 1015.38 1015.63 1015.84 1015.99 1016.09 1016.16 1016.21 1016.26 1016.32 1016.40 1016.48 1016.56 1016.63 1016.66 1016.64 1016.57 1016.45 1016.29 1016.11 1015.94 1015.79 1015.70 1015.68 1015.75 1015.92 1016.17 1016.51 1016.90 1017.33 1017.78 1018.21 1018.60 1018.96 1019.27 1019.54 1019.77 1019.98 1020.17 1020.37 1020.57
1014.55 1014.81 1015.08 1015.33 1015.53 1015.68 1015.78 1015.83 1015.85 1015.86 1015.88 1015.93 1016.02 1016.13 1016.26 1016.38 1016.48 1016.52 1016.51 1016.43 1016.30 1016.12 1015.92 1015.73 1015.58 1015.50 1015.51 1015.62 1015.83 1016.14 1016.53 1016.97 1017.44 1017.90 1018.33 1018.72 1019.06 1019.34 1019.58 1019.79 1019.99 1020.19 1020.39
1014.59 1014.82 1015.05 1015.25 1015.40 1015.49 1015.53 1015.53 1015.50 1015.47 1015.47 1015.50 1015.58 1015.70 1015.85 1016.01 1016.15 1016.25 1016.29 1016.25 1016.15 1015.99 1015.80 1015.59 1015.41 1015.28 1015.23 1015.29 1015.45 1015.72 1016.09 1016.52 1017.00 1017.48 1017.95 1018.38 1018.75 1019.07 1019.35 1019.59 1019.81 1020.02 1020.24
1014.59 1014.81 1015.00 1015.15 1015.25 1015.30 1015.30 1015.25 1015.19 1015.13 1015.09 1015.10 1015.16 1015.27 1015.42 1015.58 1015.74 1015.86 1015.94 1015.94 1015.88 1015.76 1015.59 1015.39 1015.20 1015.04 1014.95 1014.96 1015.07 1015.29 1015.62 1016.03 1016.50 1017.00 1017.50 1017.97 1018.39 1018.77 1019.09 1019.37 1019.62 1019.86 1020.09
1014.56 1014.76 1014.92 1015.04 1015.11 1015.13 1015.10 1015.03 1014.95 1014.87 1014.81 1014.79 1014.82 1014.90 1015.02 1015.15 1015.30 1015.43 1015.52 1015.56 1015.54 1015.46 1015.33 1015.16 1014.98 1014.82 1014.71 1014.68 1014.74 1014.91 1015.19 1015.57 1016.02 1016.52 1017.04 1017.55 1018.02 1018.45 1018.82 1019.14 1019.42 1019.69 1019.94
1014.48 1014.68 1014.83 1014.94 1014.99 1015.00 1014.96 1014.89 1014.80 1014.72 1014.65 1014.60 1014.59 1014.62 1014.69 1014.78 1014.89 1014.99 1015.09 1015.15 1015.17 1015.14 1015.06 1014.94 1014.80 1014.66 1014.54 1014.49 1014.51 1014.63 1014.86 1015.19 1015.62 1016.11 1016.63 1017.16 1017.67 1018.13 1018.54 1018.89 1019.20 1019.47 1019.73
1014.40 1014.59 1014.74 1014.84 1014.90 1014.91 1014.87 1014.81 1014.74 1014.65 1014.57 1014.50 1014.45 1014.43 1014.43 1014.47 1014.52 1014.60 1014.68 1014.75 1014.80 1014.83 1014.81 1014.75 1014.67 1014.56 1014.46 1014.40 1014.40 1014.48 1014.66 1014.95 1015.33 1015.80 1016.31 1016.83 1017.34 1017.82 1018.24 1018.60 1018.92 1019.19 1019.43
1014.32 1014.52 1014.67 1014.77 1014.82 1014.83 1014.81 1014.77 1014.70 1014.61 1014.52 1014.43 1014.34 1014.27 1014.22 1014.19 1014.19 1014.23 1014.29 1014.38 1014.46 1014.53 1014.58 1014.59 1014.57 1014.51 1014.45 1014.39 1014.38 1014.44 1014.58 1014.82 1015.16 1015.58 1016.05 1016.55 1017.04 1017.50 1017.91 1018.26 1018.55 1018.80 1019.02
1014.27 1014.46 1014.61 1014.70 1014.75 1014.76 1014.74 1014.70 1014.63 1014.55 1014.45 1014.34 1014.22 1014.10 1014.00 1013.92 1013.88 1013.88 1013.93 1014.02 1014.13 1014.25 1014.36 1014.43 1014.47 1014.47 1014.44 1014.41 1014.40 1014.44 1014.56 1014.76 1015.05 1015.42 1015.85 1016.30 1016.74 1017.16 1017.52 1017.84 1018.09 1018.31 1018.51
1014.24 1014.42 1014.55 1014.62 1014.65 1014.65 1014.62 1014.57 1014.50 1014.41 1014.30 1014.17 1014.03 1013.88 1013.74 1013.63 1013.56 1013.54 1013.58 1013.67 1013.80 1013.95 1014.10 1014.23 1014.33 1014.37 1014.39 1014.39 1014.39 1014.43 1014.52 1014.69 1014.94 1015.26 1015.63 1016.02 1016.40 1016.76 1017.06 1017.32 1017.53 1017.72 1017.89
1014.21 1014.37 1014.47 1014.51 1014.52 1014.49 1014.43 1014.37 1014.28 1014.18 1014.06 1013.92 1013.77 1013.61 1013.45 1013.32 1013.23 1013.20 1013.23 1013.32 1013.46 1013.63 1013.81 1013.97 1014.10 1014.19 1014.24 1014.26 1014.28 1014.33 1014.42 1014.57 1014.78 1015.05 1015.36 1015.68 1016.00 1016.28 1016.52 1016.72 1016.88 1017.04 1017.20
1014.15 1014.28 1014.35 1014.37 1014.34 1014.28 1014.20 1014.11 1014.01 1013.89 1013.77 1013.62 1013.47 1013.30 1013.15 1013.01 1012.91 1012.87 1012.89 1012.97 1013.11 1013.28 1013.46 1013.63 1013.78 1013.88 1013.95 1014.00 1014.04 1014.10 1014.19 1014.33 1014.52 1014.75 1015.00 1015.26 1015.51 1015.72 1015.89 1016.03 1016.16 1016.29 1016.45
1014.04 1014.15 1014.20 1014.18 1014.13 1014.05 1013.95 1013.84 1013.72 1013.60 1013.47 1013.33 1013.18 1013.02 1012.87 1012.74 1012.64 1012.59 1012.60 1012.66 1012.77 1012.92 1013.07 1013.23 1013.36 1013.47 1013.55 1013.61 1013.67 1013.74 1013.84 1013.98 1014.16 1014.36 1014.57 1014.77 1014.95 1015.10 1015.21 1015.30 1015.40 1015.52 1015.68
1013.87 1013.98 1014.02 1014.00 1013.94 1013.85 1013.74 1013.62 1013.50 1013.38 1013.25 1013.12 1012.98 1012.83 1012.69 1012.56 1012.45 1012.39 1012.37 1012.39 1012.46 1012.56 1012.67 1012.78 1012.89 1012.98 1013.05 1013.12 1013.19 1013.28 1013.40 1013.54 1013.71 1013.90 1014.08 1014.24 1014.37 1014.46 1014.52 1014.57 1014.64 1014.75 1014.93
1013.70 1013.81 1013.86 1013.86 1013.81 1013.73 1013.63 1013.53 1013.41 1013.30 1013.17 1013.05 1012.91 1012.76 1012.62 1012.48 1012.36 1012.27 1012.21 1012.18 1012.19 1012.22 1012.27 1012.32 1012.38 1012.44 1012.49 1012.56 1012.65 1012.76 1012.90 1013.06 1013.24 1013.42 1013.58 1013.71 1013.80 1013.85 1013.87 1013.89 1013.93 1014.03 1014.20
1013.55 1013.69 1013.78 1013.81 1013.80 1013.75 1013.68 1013.59 1013.49 1013.38 1013.26 1013.13 1012.99 1012.83 1012.67 1012.51 1012.35 1012.22 1012.10 1012.01 1011.94 1011.90 1011.87 1011.86 1011.87 1011.88 1011.92 1011.99 1012.08 1012.22 1012.38 1012.57 1012.77 1012.96 1013.12 1013.24 1013.30 1013.32 1013.31 1013.29 1013.30 1013.37 1013.54
Thickness
5753 5751 5749 5748 5748 5746 5745 5743 5743 5743 5743 5743 5743 5744 5745 5746 5745 5743 5740 5738 5737 5735 5734 5733 5731 5730 5729 5728 5727 5725 5724 5723 5722 5721 5720 5719 5717 5716 5715 5714 5712 5711 5710
5752 5751 5748 5746 5746 5745 5744 5742 5741 5740 5740 5740 5740 5741 5742 5743 5742 5741 5739 5737 5735 5733 5732 5732 5730 5729 5728 5726 5725 5724 5723 5722 5721 5720 5719 5718 5716 5715 5714 5712 5711 5710 5709
5751 5749 5746 5745 5744 5744 5742 5741 5739 5738 5737 5737 5737 5738 5739 5739 5739 5739 5737 5736 5734 5732 5731 5730 5729 5727 5726 5725 5724 5723 5722 5721 5719 5718 5717 5716 5715 5714 5712 5711 5709 5708 5707
5750 5748 5745 5744 5743 5741 5740 5737 5736 5734 5733 5732 5733 5734 5736 5736 5736 5735 5735 5734 5732 5731 5730 5728 5727 5726 5725 5724 5723 5721 5720 5719 5718 5717 5716 5715 5713 5712 5710 5709 5707 5706 5705
5749 5746 5745 5743 5741 5738 5736 5735 5733 5731 5729 5729 5729 5731 5732 5733 5733 5733 5732 5731 5731 5730 5728 5727 5726 5724 5723 5722 5721 5720 5719 5717 5716 5715 5714 5713 5711 5710 5708 5707 5705 5704 5703
5748 5745 5743 5740 5739 5736 5733 5731 5730 5729 5727 5727 5728 5729 5729 5730 5730 5729 5729 5729 5728 5727 5727 5726 5724 5722 5721 5721 5719 5718 5717 5715 5714 5713 5712 5711 5709 5708 5706 5705 5704 5702 5701
5747 5744 5741 5738 5736 5733 5731 5730 5728 5725 5724 5725 5721 5720 5723 5727 5727 5727 5727 5726 5726 5725 5724 5723 5722 5721 5719 5718 5717 5716 5715 5714 5712 5711 5709 5708 5707 5706 5704 5703 5702 5700 5699
5744 5742 5739 5736 5734 5731 5729 5727 5725 5721 5721 5722 5717 5712 5710 5714 5719 5725 5723 5722 5722 5722 5721 5721 5720 5719 5718 5717 5715 5714 5712 5711 5710 5708 5707 5706 5704 5703 5701 5700 5699 5698 5697
5741 5739 5737 5734 5732 5729 5726 5724 5723 5719 5716 5717 5717 5711 5704 5703 5709 5716 5718 5719 5718 5717 5718 5719 5718 5717 5716 5715 5714 5712 5710 5708 5707 5705 5704 5703 5702 5700 5698 5697 5696 5695 5695
5739 5737 5735 5732 5730 5727 5724 5722 5722 5719 5715 5712 5712 5712 5710 5708 5702 5702 5708 5713 5714 5713 5714 5715 5715 5714 5713 5713 5711 5710 5708 5705 5704 5702 5701 5699 5698 5697 5695 5694 5693 5692 5692
5737 5735 5733 5731 5728 5725 5723 5721 5719 5716 5714 5710 5708 5707 5706 5705 5704 5698 5696 5701 5705 5708 5710 5711 5711 5711 5711 5710 5708 5706 5704 5702 5701 5699 5698 5696 5695 5694 5693 5692 5691 5690 5690
5733 5732 5730 5727 5725 5722 5720 5717 5715 5713 5711 5708 5706 5705 5702 5700 5698 5697 5694 5694 5695 5701 5705 5707 5706 5706 5706 5706 5704 5703 5701 5699 5697 5695 5694 5693 5692 5691 5691 5689 5688 5687 5686
5728 5727 5727 5724 5721 5718 5716 5714 5711 5709 5708 5705 5703 5701 5700 5700 5699 5696 5692 5690 5690 5694 5697 5700 5702 5702 5702 5701 5700 5699 5696 5695 5694 5692 5691 5689 5688 5688 5687 5686 5685 5684 5683
5725 5725 5722 5719 5717 5715 5712 5710 5707 5706 5704 5702 5700 5698 5697 5697 5697 5694 5690 5686 5682 5684 5687 5691 5696 5697 5697 5697 5696 5695 5693 5691 5690 5689 5687 5686 5685 5684 5683 5682 5681 5679 5678
5723 5720 5717 5714 5712 5710 5708 5705 5702 5701 5700 5698 5696 5695 5693 5692 5692 5691 5689 5685 5678 5674 5676 5683 5686 5690 5692 5691 5690 5689 5689 5687 5685 5684 5683 5682 5680 5680 5678 5677 5676 5675 5673
5717 5714 5711 5708 5705 5703 5701 5700 5698 5697 5695 5693 5691 5689 5688 5687 5687 5686 5684 5682 5679 5674 5672 5677 5680 5684 5685 5685 5684 5683 5683 5682 5680 5680 5679 5677 5675 5674 5673 5672 5671 5670 5668
5711 5708 5705 5702 5700 5697 5696 5694 5693 5693 5690 5688 5687 5685 5683 5682 5680 5679 5678 5676 5675 5672 5667 5671 5675 5677 5677 5676 5676 5677 5677 5676 5676 5675 5674 5672 5671 5669 5668 5667 5666 5664 5663
5706 5703 5700 5697 5695 5693 5691 5689 5687 5687 5685 5683 5682 5680 5679 5677 5675 5674 5671 5670 5668 5667 5663 5662 5666 5668 5669 5670 5670 5670 5671 5672 5672 5671 5670 5668 5666 5664 5663 5662 5661 5660 5659
5701 5698 5696 5692 5691 5689 5687 5686 5684 5682 5680 5679 5677 5675 5673 5671 5668 5667 5665 5664 5662 5662 5660 5658 5659 5661 5662 5663 5663 5663 5665 5665 5666 5666 5664 5663 5661 5660 5658 5657 5656 5655 5653
5695 5693 5691 5689 5687 5686 5683 5682 5679 5677 5676 5675 5674 5671 5669 5667 5663 5661 5660 5657 5656 5654 5653 5653 5653 5653 5654 5656 5655 5654 5654 5657 5658 5659 5658 5657 5656 5655 5653 5652 5651 5649 5648
5690 5687 5685 5684 5683 5681 5678 5676 5674 5673 5671 5670 5668 5666 5665 5662 5659 5656 5655 5652 5650 5647 5646 5646 5646 5646 5646 5646 5646 5647 5647 5648 5650 5651 5650 5651 5650 5648 5647 5646 5645 5644 5643
5683 5681 5679 5679 5677 5676 5673 5671 5668 5667 5666 5664 5662 5661 5659 5656 5654 5651 5649 5647 5645 5642 5640 5639 5639 5639 5640 5640 5641 5641 5640 5639 5639 5643 5642 5642 5644 5643 5643 5642 5642 5640 5639
5676 5675 5674 5673 5671 5669 5667 5665 5663 5661 5661 5659 5657 5655 5654 5652 5649 5647 5645 5642 5640 5638 5636 5635 5634 5634 5634 5634 5633 5632 5632 5631 5632 5635 5634 5633 5636 5635 5637 5638 5637 5636 5634
5670 5669 5668 5667 5666 5664 5661 5659 5657 5656 5656 5654 5652 5650 5648 5645 5644 5641 5640 5638 5635 5634 5632 5631 5631 5629 5629 5629 5628 5627 5626 5625 5627 5628 5629 5625 5628 5628 5631 5632 5632 5630 5629
5665 5664 5663 5662 5660 5658 5655 5653 5650 5650 5650 5649 5648 5646 5644 5641 5638 5636 5634 5631 5629 5628 5629 5628 5626 5625 5624 5623 5621 5619 5618 5617 5617 5620 5623 5621 5622 5623 5624 5625 5626 5625 5624
5660 5659 5659 5658 5656 5654 5650 5647 5644 5645 5644 5643 5642 5640 5638 5635 5632 5629 5627 5625 5622 5622 5621 5621 5619 5618 5618 5617 5615 5612 5612 5611 5611 5612 5616 5615 5615 5615 5615 5619 5619 5618 5616